SSEC Globe Logo

Space Science and Engineering Center

Surface Aviation Observations

KAIG 101815Z AUTO 25007KT 10SM CLR M14/M19 A3002 RMK AO2
     T11441188=
KAIG 101815Z AUTO 25007KT 10SM CLR M14/M19 A3002 RMK AO2
     T11441188=
KAIG 101755Z AUTO 25006KT 10SM SCT065 SCT090 M14/M19 A3002
     RMK AO2 T11451187 11145 21200=
KAIG 101755Z AUTO 25006KT 10SM SCT065 SCT090 M14/M19 A3002
     RMK AO2 T11451187 11145 21200=
KC29 101815Z AUTO 28010G16KT 10SM CLR M08/M16 A3015 RMK AO1
     T10821161=
KC29 101815Z AUTO 28010G16KT 10SM CLR M08/M16 A3015 RMK AO1
     T10821161=
KC29 101755Z AUTO 27012KT 10SM CLR M08/M15 A3015 RMK AO1
     T10851155 11084 21117=
KC29 101755Z AUTO 27012KT 10SM CLR M08/M15 A3015 RMK AO1
     T10851155 11084 21117=
KBCK 101815Z AUTO 26009KT 10SM CLR M13/M19 A3018 RMK AO2
     T11291193=
KBCK 101815Z AUTO 26009KT 10SM CLR M13/M19 A3018 RMK AO2
     T11291193=
KBCK 101755Z AUTO 23007KT 10SM CLR M13/M19 A3018 RMK AO2
     T11291186 11127 21177=
KBCK 101755Z AUTO 23007KT 10SM CLR M13/M19 A3018 RMK AO2
     T11291186 11127 21177=
KUBE 101815Z AUTO 31006KT 10SM CLR M17/M22 A3012 RMK AO2=
KUBE 101815Z AUTO 31006KT 10SM CLR M17/M22 A3012 RMK AO2=
KUBE 101755Z AUTO 31008KT 10SM CLR M17/M22 A3011 RMK AO2=
KUBE 101755Z AUTO 31008KT 10SM CLR M17/M22 A3011 RMK AO2=
KPVB 101815Z AUTO 27016G19KT 10SM CLR M09/M15 A3019 RMK AO1
     T10911154=
KPVB 101815Z AUTO 27016G19KT 10SM CLR M09/M15 A3019 RMK AO1
     T10911154=
KPVB 101755Z AUTO 28011G16KT 10SM CLR M09/M15 A3019 RMK AO1
     T10941153 11093 21146=
KPVB 101755Z AUTO 28011G16KT 10SM CLR M09/M15 A3019 RMK AO1
     T10941153 11093 21146=
KEZS 101815Z AUTO 27007KT 10SM SCT020 SCT100 M11/M16 A3010
     RMK AO2 T11101165=
KEZS 101815Z AUTO 27007KT 10SM SCT020 SCT100 M11/M16 A3010
     RMK AO2 T11101165=
KEZS 101755Z AUTO 25006KT 10SM SCT020 BKN100 M10/M15 A3009
     RMK AO2 T11051155 11104 21133=
KEZS 101755Z AUTO 25006KT 10SM SCT020 BKN100 M10/M15 A3009
     RMK AO2 T11051155 11104 21133=
KARV 101755Z AUTO 27007KT 7SM BKN021 BKN025 OVC050 M14/M18
     A2998 RMK AO2 T11421178 11142 21165=
KARV 101755Z AUTO 27007KT 7SM BKN021 BKN025 OVC050 M14/M18
     A2998 RMK AO2 T11421178 11142 21165=
KASX 101753Z AUTO 23008KT 8SM BKN018 BKN024 M16/M20 A3010
     RMK AO2 SLP213 60000 T11611200 11161 21178 50012=
KASX 101753Z AUTO 23008KT 8SM BKN018 BKN024 M16/M20 A3010
     RMK AO2 SLP213 60000 T11611200 11161 21178 50012=
KATW 101745Z 25013KT 10SM BKN019 M11/M17 A3008=
KATW 101745Z 25013KT 10SM BKN019 M11/M17 A3008=
KAUW 101754Z AUTO 28009KT 10SM FEW095 M15/M19 A3007 RMK AO2
     SLP213 T11501194 11150 21167 50013=
KAUW 101754Z AUTO 28009KT 10SM FEW095 M15/M19 A3007 RMK AO2
     SLP213 T11501194 11150 21167 50013=
KBUU 101815Z AUTO 29011G16KT 10SM SCT022 M08/M13 A3014 RMK
     AO2 T10791133=
KBUU 101815Z AUTO 29011G16KT 10SM SCT022 M08/M13 A3014 RMK
     AO2 T10791133=
KBUU 101755Z AUTO 28012KT 10SM BKN022 M08/M13 A3014 RMK AO2
     T10801130 11076 21086=
KBUU 101755Z AUTO 28012KT 10SM BKN022 M08/M13 A3014 RMK AO2
     T10801130 11076 21086=
KCLI 101815Z AUTO 26009KT 10SM SCT021 OVC100 M11/M17 A3011
     RMK AO2 T11151167=
KCLI 101815Z AUTO 26009KT 10SM SCT021 OVC100 M11/M17 A3011
     RMK AO2 T11151167=
KCLI 101755Z AUTO 28011KT 10SM SCT022 OVC100 M11/M17 A3010
     RMK AO2 T11121168 11110 21144=
KCLI 101755Z AUTO 28011KT 10SM SCT022 OVC100 M11/M17 A3010
     RMK AO2 T11121168 11110 21144=
KCMY 101815Z AUTO 25005KT 10SM CLR M13/M18 A3020 RMK AO2
     T11301184=
KCMY 101815Z AUTO 25005KT 10SM CLR M13/M18 A3020 RMK AO2
     T11301184=
KCMY 101755Z AUTO 25007KT 10SM CLR M13/M18 A3020 RMK AO2
     T11311180 11130 21176=
KCMY 101755Z AUTO 25007KT 10SM CLR M13/M18 A3020 RMK AO2
     T11311180 11130 21176=
KCWA 101747Z 25009KT 10SM SCT014 SCT100 M14/M19 A3008=
KCWA 101747Z 25009KT 10SM SCT014 SCT100 M14/M19 A3008=
KDLL 101815Z AUTO 28010G16KT 10SM CLR M11/M19 A3014 RMK AO2
     T11121191=
KDLL 101815Z AUTO 28010G16KT 10SM CLR M11/M19 A3014 RMK AO2
     T11121191=
KDLL 101755Z AUTO 28013KT 10SM CLR M12/M18 A3014 RMK AO2
     T11161184 11115 21145=
KDLL 101755Z AUTO 28013KT 10SM CLR M12/M18 A3014 RMK AO2
     T11161184 11115 21145=
KEAU 101756Z 26008KT 10SM SCT050 M17/M23 A3017 RMK AO2
     SLP239 T11671233 11167 21206 50009 $=
KEAU 101756Z 26008KT 10SM SCT050 M17/M23 A3017 RMK AO2
     SLP239 T11671233 11167 21206 50009 $=
KEFT 101815Z AUTO 28013G17KT 10SM CLR M09/M17 A3014 RMK AO2
     T10861174=
KEFT 101815Z AUTO 28013G17KT 10SM CLR M09/M17 A3014 RMK AO2
     T10861174=
KEFT 101755Z AUTO 29010KT 10SM CLR M09/M17 A3014 RMK AO2
     T10891167 11089 21137=
KEFT 101755Z AUTO 29010KT 10SM CLR M09/M17 A3014 RMK AO2
     T10891167 11089 21137=
KEGV 101815Z AUTO 26009KT 10SM SCT021 OVC060 M15/M19 A2997
     RMK AO2 T11461191=
KEGV 101815Z AUTO 26009KT 10SM SCT021 OVC060 M15/M19 A2997
     RMK AO2 T11461191=
KEGV 101755Z AUTO 27009KT 10SM OVC060 M15/M19 A2997 RMK AO2
     T11461191 11146 21180=
KEGV 101755Z AUTO 27009KT 10SM OVC060 M15/M19 A2997 RMK AO2
     T11461191 11146 21180=
KENW 101753Z 28010G20KT 10SM BKN026 M06/M12 A3013 RMK AO2
     SNE01 SLP213 P0000 60000 T10611122 11050 21067 51020 $=
KENW 101753Z 28010G20KT 10SM BKN026 M06/M12 A3013 RMK AO2
     SNE01 SLP213 P0000 60000 T10611122 11050 21067 51020 $=
KETB 101815Z AUTO 26011KT 10SM OVC021 M08/M12 A3010 RMK AO2=
KETB 101815Z AUTO 26011KT 10SM OVC021 M08/M12 A3010 RMK AO2=
KETB 101755Z AUTO 26011G14KT 10SM -SN OVC019 M09/M12 A3010
     RMK AO2=
KETB 101755Z AUTO 26011G14KT 10SM -SN OVC019 M09/M12 A3010
     RMK AO2=
KFLD 101753Z AUTO 29014G18KT 10SM UP OVC020 M09/M14 A3012
     RMK AO2 UPE33B52SNB33E44 SLP212 P0000 60000 T10891139
     11083 21111 51015=
KFLD 101753Z AUTO 29014G18KT 10SM UP OVC020 M09/M14 A3012
     RMK AO2 UPE33B52SNB33E44 SLP212 P0000 60000 T10891139
     11083 21111 51015=
KGRB 101753Z 29013KT 10SM SCT100 M11/M16 A3011 RMK AO2
     SLP208 T11111161 11106 21128 51014=
KGRB 101753Z 29013KT 10SM SCT100 M11/M16 A3011 RMK AO2
     SLP208 T11111161 11106 21128 51014=
KHYR 101753Z AUTO VRB04KT 10SM CLR M17/M22 A3009 RMK AO2
     SLP223 T11671222 11167 21206 50014=
KHYR 101753Z AUTO VRB04KT 10SM CLR M17/M22 A3009 RMK AO2
     SLP223 T11671222 11167 21206 50014=
KISW 101754Z AUTO 26008KT 10SM CLR M13/M18 A3013 RMK AO2
     SLP226 60000 T11331178 11133 21150 50002=
KISW 101754Z AUTO 26008KT 10SM CLR M13/M18 A3013 RMK AO2
     SLP226 60000 T11331178 11133 21150 50002=
KJVL 101745Z 29012KT 10SM SKC M07/M13 A3015=
KJVL 101745Z 29012KT 10SM SKC M07/M13 A3015=
KLNL 101815Z AUTO 27007KT 7SM SCT019 OVC060 M14/M17 A2997
     RMK AO2 T11361175=
KLNL 101815Z AUTO 27007KT 7SM SCT019 OVC060 M14/M17 A2997
     RMK AO2 T11361175=
KLNL 101755Z AUTO 28005KT 10SM OVC060 M14/M17 A2997 RMK AO2
     T11361174 11136 21158=
KLNL 101755Z AUTO 28005KT 10SM OVC060 M14/M17 A2997 RMK AO2
     T11361174 11136 21158=
KLNR 101756Z AUTO 28011KT 10SM CLR M09/M18 A3019 RMK AO2
     SLP231 T10941183 11094 21139 50006=
KLNR 101756Z AUTO 28011KT 10SM CLR M09/M18 A3019 RMK AO2
     SLP231 T10941183 11094 21139 50006=
KLSE 101753Z 27008KT 10SM CLR M12/M20 A3022 RMK AO2 SLP256
     T11221200 11122 21178 50008=
KLSE 101753Z 27008KT 10SM CLR M12/M20 A3022 RMK AO2 SLP256
     T11221200 11122 21178 50008=
KLUM 101815Z AUTO 27009KT 10SM CLR M17/M22 A3018 RMK AO2
     T11711217=
KLUM 101815Z AUTO 27009KT 10SM CLR M17/M22 A3018 RMK AO2
     T11711217=
KLUM 101755Z AUTO 27009KT 10SM CLR M17/M22 A3018 RMK AO2
     T11751221 11175 21225=
KLUM 101755Z AUTO 27009KT 10SM CLR M17/M22 A3018 RMK AO2
     T11751221 11175 21225=
KMDZ 101815Z AUTO 23007KT 10SM CLR M17/M20 A3005 RMK AO2
     T11661205=
KMDZ 101815Z AUTO 23007KT 10SM CLR M17/M20 A3005 RMK AO2
     T11661205=
KMDZ 101755Z AUTO 23006KT 10SM CLR M16/M20 A3005 RMK AO2
     T11621205 11162 21187=
KMDZ 101755Z AUTO 23006KT 10SM CLR M16/M20 A3005 RMK AO2
     T11621205 11162 21187=
KMFI 101754Z AUTO 28011KT 10SM CLR M16/M20 A3009 RMK AO2
     SLP219 60000 T11561200 11150 21172 51014=
KMFI 101754Z AUTO 28011KT 10SM CLR M16/M20 A3009 RMK AO2
     SLP219 60000 T11561200 11150 21172 51014=
KMKE 101752Z 28011KT 10SM FEW027 M07/M14 A3012 RMK AO2
     SLP211 60000 T10671144 11061 21083 51019=
KMKE 101752Z 28011KT 10SM FEW027 M07/M14 A3012 RMK AO2
     SLP211 60000 T10671144 11061 21083 51019=
KMRJ 101815Z AUTO 29012G16KT 10SM CLR M08/M17 A3015 RMK AO2=
KMRJ 101815Z AUTO 29012G16KT 10SM CLR M08/M17 A3015 RMK AO2=
KMRJ 101755Z AUTO 30010G16KT 10SM CLR M09/M17 A3015 RMK AO2=
KMRJ 101755Z AUTO 30010G16KT 10SM CLR M09/M17 A3015 RMK AO2=
KMSN 101753Z 29007G16KT 260V320 10SM CLR M09/M17 A3014 RMK
     AO2 SLP223 60000 T10941167 11094 21122 50001=
KMSN 101753Z 29007G16KT 260V320 10SM CLR M09/M17 A3014 RMK
     AO2 SLP223 60000 T10941167 11094 21122 50001=
KMTW 101756Z AUTO 28010KT 10SM CLR M09/M14 A3011 RMK AO2
     SLP206 60000 T10891144 11089 21111 51016 FZRANO=
KMTW 101756Z AUTO 28010KT 10SM CLR M09/M14 A3011 RMK AO2
     SLP206 60000 T10891144 11089 21111 51016 FZRANO=
KMWC 101745Z 29012G18KT 10SM BKN023 M08/M15 A3013=
KMWC 101745Z 29012G18KT 10SM BKN023 M08/M15 A3013=
KOEO 101815Z AUTO 27007KT 10SM CLR M15/M21 A3021 RMK AO2
     T11551209=
KOEO 101815Z AUTO 27007KT 10SM CLR M15/M21 A3021 RMK AO2
     T11551209=
KOEO 101755Z AUTO 28008KT 10SM CLR M16/M21 A3022 RMK AO2
     T11581208 11158 21222=
KOEO 101755Z AUTO 28008KT 10SM CLR M16/M21 A3022 RMK AO2
     T11581208 11158 21222=
KOSH 101753Z 27008G17KT 10SM BKN020 M10/M14 A3011 RMK AO2
     SLP219 T11001144 11100 21122 53004=
KOSH 101753Z 27008G17KT 10SM BKN020 M10/M14 A3011 RMK AO2
     SLP219 T11001144 11100 21122 53004=
KOVS 101753Z AUTO 28012KT 10SM CLR M09/M19 A3022 RMK AO2
     SLP249 T10941194 11089 21150 50009=
KOVS 101753Z AUTO 28012KT 10SM CLR M09/M19 A3022 RMK AO2
     SLP249 T10941194 11089 21150 50009=
KPBH 101815Z AUTO 28004KT 10SM SCT025 OVC050 M16/M21 A3003
     RMK AO2 T11601210=
KPBH 101815Z AUTO 28004KT 10SM SCT025 OVC050 M16/M21 A3003
     RMK AO2 T11601210=
KPBH 101755Z AUTO 27005KT 10SM OVC050 M16/M21 A3003 RMK AO2
     T11601213 11160 21180=
KPBH 101755Z AUTO 27005KT 10SM OVC050 M16/M21 A3003 RMK AO2
     T11601213 11160 21180=
KPCZ 101815Z AUTO 26009KT 10SM CLR M10/M16 A3013 RMK AO2
     T11021161=
KPCZ 101815Z AUTO 26009KT 10SM CLR M10/M16 A3013 RMK AO2
     T11021161=
KPCZ 101755Z AUTO 26012KT 10SM SCT095 M10/M16 A3013 RMK AO2
     T11031162 11102 21128=
KPCZ 101755Z AUTO 26012KT 10SM SCT095 M10/M16 A3013 RMK AO2
     T11031162 11102 21128=
KPDC 101815Z AUTO 28011KT 10SM CLR M09/M19 A3024 RMK AO2
     T10931186=
KPDC 101815Z AUTO 28011KT 10SM CLR M09/M19 A3024 RMK AO2
     T10931186=
KPDC 101755Z AUTO 29010KT 10SM CLR M10/M19 A3024 RMK AO2
     T10981192 11097 21157=
KPDC 101755Z AUTO 29010KT 10SM CLR M10/M19 A3024 RMK AO2
     T10981192 11097 21157=
KRAC 101753Z AUTO 29010G21KT 10SM CLR M07/M14 A3014 RMK AO2
     SLP215 60000 T10671139 11056 21078 51020=
KRAC 101753Z AUTO 29010G21KT 10SM CLR M07/M14 A3014 RMK AO2
     SLP215 60000 T10671139 11056 21078 51020=
KRCX 101815Z AUTO 26004KT 10SM OVC048 M15/M21 A3011 RMK AO2
     T11521211=
KRCX 101815Z AUTO 26004KT 10SM OVC048 M15/M21 A3011 RMK AO2
     T11521211=
KRCX 101755Z AUTO 28006KT 10SM OVC050 M15/M21 A3011 RMK AO2
     T11541210 11153 21195=
KRCX 101755Z AUTO 28006KT 10SM OVC050 M15/M21 A3011 RMK AO2
     T11541210 11153 21195=
KRHI 101753Z AUTO 25007KT 10SM OVC055 M15/M20 A2999 RMK AO2
     SLP193 I6000 T11501200 11150 21222 50008=
KRHI 101753Z AUTO 25007KT 10SM OVC055 M15/M20 A2999 RMK AO2
     SLP193 I6000 T11501200 11150 21222 50008=
KRNH 101815Z AUTO 30007KT 10SM CLR M15/M21 A3018 RMK AO2
     T11551213=
KRNH 101815Z AUTO 30007KT 10SM CLR M15/M21 A3018 RMK AO2
     T11551213=
KRNH 101755Z AUTO 30008KT 10SM CLR M16/M22 A3017 RMK AO2
     T11601216 11160 21231=
KRNH 101755Z AUTO 30008KT 10SM CLR M16/M22 A3017 RMK AO2
     T11601216 11160 21231=
KRPD 101815Z AUTO 25007KT 10SM CLR M17/M26 A3015 RMK AO2
     T11691260=
KRPD 101815Z AUTO 25007KT 10SM CLR M17/M26 A3015 RMK AO2
     T11691260=
KRPD 101755Z AUTO 25006KT 10SM CLR M17/M26 A3014 RMK AO2
     T11731263 11173 21216=
KRPD 101755Z AUTO 25006KT 10SM CLR M17/M26 A3014 RMK AO2
     T11731263 11173 21216=
KRRL 101815Z AUTO 25006KT 10SM BKN055 M13/M20 A3005 RMK AO2
     T11301198 TSNO=
KRRL 101815Z AUTO 25006KT 10SM BKN055 M13/M20 A3005 RMK AO2
     T11301198 TSNO=
KRRL 101755Z AUTO 25005KT 10SM SCT055 M13/M19 A3006 RMK AO2
     T11331194 11133 21180 TSNO=
KRRL 101755Z AUTO 25005KT 10SM SCT055 M13/M19 A3006 RMK AO2
     T11331194 11133 21180 TSNO=
KRYV 101815Z AUTO 26009KT 10SM BKN022 M08/M14 A3013 RMK AO2
     T10841139=
KRYV 101815Z AUTO 26009KT 10SM BKN022 M08/M14 A3013 RMK AO2
     T10841139=
KRYV 101755Z AUTO 26008KT 10SM BKN022 M08/M14 A3013 RMK AO2
     T10851136 11085 21108=
KRYV 101755Z AUTO 26008KT 10SM BKN022 M08/M14 A3013 RMK AO2
     T10851136 11085 21108=
KRZN 101815Z AUTO 28007KT 10SM BKN022 M16/M21 A3015 RMK AO2
     T11591211=
KRZN 101815Z AUTO 28007KT 10SM BKN022 M16/M21 A3015 RMK AO2
     T11591211=
KRZN 101755Z AUTO 29007KT 10SM SCT018 M16/M21 A3016 RMK AO2
     T11641211 11164 21229=
KRZN 101755Z AUTO 29007KT 10SM SCT018 M16/M21 A3016 RMK AO2
     T11641211 11164 21229=
KSBM 101753Z AUTO 27012KT 10SM OVC019 M09/M14 A3010 RMK AO2
     SLP207 60000 T10941139 11089 21111 51003=
KSBM 101753Z AUTO 27012KT 10SM OVC019 M09/M14 A3010 RMK AO2
     SLP207 60000 T10941139 11089 21111 51003=
KSTE 101815Z AUTO 28007KT 10SM CLR M14/M19 A3011 RMK AO2
     T11441190=
KSTE 101815Z AUTO 28007KT 10SM CLR M14/M19 A3011 RMK AO2
     T11441190=
KSTE 101755Z AUTO 27008KT 230V300 10SM CLR M15/M19 A3011 RMK
     AO2 T11461186 11146 21163=
KSTE 101755Z AUTO 27008KT 230V300 10SM CLR M15/M19 A3011 RMK
     AO2 T11461186 11146 21163=
KSUE 101756Z AUTO 28012KT 10SM FEW022 M09/M14 A3006 RMK AO2
     SLP193 60000 T10891144 11083 21100 51014 FZRANO $=
KSUE 101756Z AUTO 28012KT 10SM FEW022 M09/M14 A3006 RMK AO2
     SLP193 60000 T10891144 11083 21100 51014 FZRANO $=
KSUW 101815Z AUTO 27004KT 10SM BKN024 M16/M22 A3015 RMK AO2
     T11651219=
KSUW 101815Z AUTO 27004KT 10SM BKN024 M16/M22 A3015 RMK AO2
     T11651219=
KSUW 101755Z AUTO 29007KT 10SM BKN024 M17/M22 A3015 RMK AO2
     T11661219 11165 21197=
KSUW 101755Z AUTO 29007KT 10SM BKN024 M17/M22 A3015 RMK AO2
     T11661219 11165 21197=
KTKV 101815Z AUTO 26006KT 10SM OVC055 M14/M21 A3003 RMK AO2
     T11401208=
KTKV 101815Z AUTO 26006KT 10SM OVC055 M14/M21 A3003 RMK AO2
     T11401208=
KTKV 101755Z AUTO 27007KT 10SM OVC055 M14/M20 A3003 RMK AO2
     T11401203 11140 21178=
KTKV 101755Z AUTO 27007KT 10SM OVC055 M14/M20 A3003 RMK AO2
     T11401203 11140 21178=
KUES 101745Z 27012G17KT 10SM BKN022 M09/M14 A3012=
KUES 101745Z 27012G17KT 10SM BKN022 M09/M14 A3012=
KUNU 101815Z AUTO 24011KT 10SM SCT023 M10/M15 A3013 RMK AO2
     T10991152=
KUNU 101815Z AUTO 24011KT 10SM SCT023 M10/M15 A3013 RMK AO2
     T10991152=
KUNU 101755Z AUTO 27011G15KT 10SM SCT024 M10/M15 A3013 RMK
     AO2 6//// T11041150=
KUNU 101755Z AUTO 27011G15KT 10SM SCT024 M10/M15 A3013 RMK
     AO2 6//// T11041150=
KVOK 101756Z 26011KT 10SM FEW090 M13/M18 A3015 RMK AO2A
     SLP233 50010=
KVOK 101756Z 26011KT 10SM FEW090 M13/M18 A3015 RMK AO2A
     SLP233 50010=
METAR KVOK 101756Z 26011KT 10SM FEW090 M13/M18 A3015 RMK
     AO2A SLP233 50010=
METAR KVOK 101756Z 26011KT 10SM FEW090 M13/M18 A3015 RMK
     AO2A SLP233 50010=
KVOK 101756Z 26011KT 10SM FEW090 M13/M18 A3015 RMK AO2A
     SLP233 50010=
KY50 101756Z AUTO 28012KT 10SM SCT023 M11/M16 A3014 RMK AO2
     SNE20 SLP222 P0000 60000 T11111161 11100 21133 50014
     FZRANO $=
KY50 101756Z AUTO 28012KT 10SM SCT023 M11/M16 A3014 RMK AO2
     SNE20 SLP222 P0000 60000 T11111161 11100 21133 50014
     FZRANO $=
KY51 101815Z AUTO 26010KT 10SM SCT060 M13/M18 A3016 RMK AO1
     T11311183=
KY51 101815Z AUTO 26010KT 10SM SCT060 M13/M18 A3016 RMK AO1
     T11311183=
KY51 101755Z AUTO 27009KT 10SM BKN060 M14/M18 A3015 RMK AO1
     T11361182 11132 21183=
KY51 101755Z AUTO 27009KT 10SM BKN060 M14/M18 A3015 RMK AO1
     T11361182 11132 21183=
KY23 101815Z AUTO 28005KT 10SM CLR M17/M22 A3015 RMK AO2
     T11681223=
KY23 101815Z AUTO 28005KT 10SM CLR M17/M22 A3015 RMK AO2
     T11681223=
KY23 101755Z AUTO 29005KT 10SM CLR M17/M22 A3015 RMK AO2
     T11711225 11171 21217=
KY23 101755Z AUTO 29005KT 10SM CLR M17/M22 A3015 RMK AO2
     T11711225 11171 21217=
K3D2 101815Z AUTO 28010KT 10SM SCT024 M09/M16 A3003 RMK AO2
     T10951160=
K3D2 101815Z AUTO 28010KT 10SM SCT024 M09/M16 A3003 RMK AO2
     T10951160=
K3D2 101755Z AUTO 30009KT 260V320 10SM BKN024 M10/M15 A3003
     RMK AO2 T11001155 11095 21110=
K3D2 101755Z AUTO 30009KT 260V320 10SM BKN024 M10/M15 A3003
     RMK AO2 T11001155 11095 21110=
KD25 101815Z AUTO 25007KT 4SM HZ OVC018 M16/M19 A2999 RMK
     AO2 T11561193=
KD25 101815Z AUTO 25007KT 4SM HZ OVC018 M16/M19 A2999 RMK
     AO2 T11561193=
KD25 101755Z AUTO 26009KT 7SM OVC018 M16/M19 A2999 RMK AO2
     T11581195 11157 21171=
KD25 101755Z AUTO 26009KT 7SM OVC018 M16/M19 A2999 RMK AO2
     T11581195 11157 21171=
KOCQ 101815Z AUTO 29007KT 10SM OVC110 M10/M16 A3009 RMK AO1
     T11051162=
KOCQ 101815Z AUTO 29007KT 10SM OVC110 M10/M16 A3009 RMK AO1
     T11051162=
KOCQ 101755Z AUTO 27011KT 10SM SCT110 M11/M16 A3009 RMK AO1
     T11071161 11096 21125=
KOCQ 101755Z AUTO 27011KT 10SM SCT110 M11/M16 A3009 RMK AO1
     T11071161 11096 21125=
KC35 101815Z AUTO 30009KT 10SM CLR M10/M20 A3015 RMK AO2
     T11021203 PWINO=
KC35 101815Z AUTO 30009KT 10SM CLR M10/M20 A3015 RMK AO2
     T11021203 PWINO=
KC35 101755Z AUTO 30006KT 10SM CLR M10/M18 A3015 RMK AO2
     T11051183 11105 21143 PWINO=
KC35 101755Z AUTO 30006KT 10SM CLR M10/M18 A3015 RMK AO2
     T11051183 11105 21143 PWINO=
KOLG 101815Z AUTO 29005KT 7SM BKN019 M17/M21 A3010 RMK AO1=
KOLG 101815Z AUTO 29005KT 7SM BKN019 M17/M21 A3010 RMK AO1=
KOLG 101755Z AUTO 29006KT 10SM BKN019 M17/M21 A3010 RMK AO1=
KOLG 101755Z AUTO 29006KT 10SM BKN019 M17/M21 A3010 RMK AO1=
K2P2 101815Z AUTO 28008G14KT 260V320 10SM SCT023 BKN030
     BKN037 M09/M14 A3003 RMK AO2 T10901145=
K2P2 101815Z AUTO 28008G14KT 260V320 10SM SCT023 BKN030
     BKN037 M09/M14 A3003 RMK AO2 T10901145=
K2P2 101755Z AUTO 30010G15KT 10SM BKN027 OVC032 M09/M15
     A3003 RMK AO2 T10951147 11090 21100=
K2P2 101755Z AUTO 30010G15KT 10SM BKN027 OVC032 M09/M15
     A3003 RMK AO2 T10951147 11090 21100=
KDBQ 101753Z 30012KT 10SM CLR M09/M16 A3019 RMK AO2 SLP245
     T10941161 11094 21150 50010 $=
KDBQ 101753Z 30012KT 10SM CLR M09/M16 A3019 RMK AO2 SLP245
     T10941161 11094 21150 50010 $=
KRST 101800Z 27013KT 3SM HZ OVC015 M14/M18 A3018 RMK AO2
     T11441183=
KRST 101754Z 28012KT 2SM HZ OVC013 M14/M18 A3018 RMK AO2 VIS
     1 3/4V3 SLP254 T11441183 11144 21206 51005=
KRST 101754Z 28012KT 2SM HZ OVC013 M14/M18 A3018 RMK AO2 VIS
     1 3/4V3 SLP254 T11441183 11144 21206 51005=
KMSP 101753Z 32012KT 10SM FEW022 M14/M21 A3021 RMK AO2
     SLP254 4/007 60000 T11441206 11144 21189 50012=
KMSP 101753Z 32012KT 10SM FEW022 M14/M21 A3021 RMK AO2
     SLP254 4/007 60000 T11441206 11144 21189 50012=
KRFD 101754Z 30014KT 10SM CLR M07/M15 A3020 RMK AO2 SLP238
     T10671150 11067 21117 50011=
KRFD 101754Z 30014KT 10SM CLR M07/M15 A3020 RMK AO2 SLP238
     T10671150 11067 21117 50011=
KORD 101751Z 29009KT 250V330 10SM FEW023 M07/M13 A3016 RMK
     AO2 SLP225 60000 T10721133 11072 21100 51017=
KORD 101751Z 29009KT 250V330 10SM FEW023 M07/M13 A3016 RMK
     AO2 SLP225 60000 T10721133 11072 21100 51017=